Weather Service Report


191 
ASUS43 KOAX 241110
RWRNE 

WEATHER ROUNDUP FOR NEBRASKA
NATIONAL WEATHER SERVICE OMAHA NE
600 AM CDT FRI OCT 24 2014

NOTES: SATELLITE DATA IS BEING USED TO AUGMENT CLOUD COVER ABOVE
       12000 FEET.
       "FAIR" INDICATES FEW OR NO CLOUDS BELOW 12,000 FEET WITH NO
       SIGNIFICANT WEATHER AND/OR OBSTRUCTIONS TO VISIBILITY.

  * THESE STATIONS DO NOT REPORT WEATHER SUCH AS RAIN...SNOW OR FOG.
   
NEZ001>004-019>022-054>056-241200-
NEBRASKA PANHANDLE
  
CITY           SKY/WX    TMP DP  RH WIND       PRES   REMARKS
SCOTTSBLUFF    CLOUDY    46  37  71 NW7       30.02R                  
ALLIANCE       CLOUDY    43  32  65 W7        29.99R                  
CHADRON        CLOUDY    45  35  68 SW6       29.95R                  
KIMBALL        CLOUDY    53  32  45 W7        30.06R                  
SIDNEY         CLOUDY    48  35  60 SW10      30.04S                  
$$
 
NEZ057>060-069>072-079>082-241200-
SOUTHWEST NEBRASKA
  
CITY           SKY/WX    TMP DP  RH WIND       PRES   REMARKS
NORTH PLATTE   CLOUDY    43  41  93 NW6       29.98S                  
IMPERIAL       PTCLDY    50  38  63 W10       30.00F                  
LEXINGTON      PTCLDY    51  49  93 W5        29.97S                  
MCCOOK         MOCLDY    51  49  92 W8        30.00S                  
OGALLALA       CLOUDY    43  37  81 W3        30.00S                  
$$
 
NEZ005>010-023>029-035>040-094-241200-
NORTH CENTRAL NEBRASKA
  
CITY           SKY/WX    TMP DP  RH WIND       PRES   REMARKS
VALENTINE      CLOUDY    43  37  79 W3        29.92S                  
AINSWORTH      CLOUDY    48  38  67 W5        29.92R                  
BROKEN BOW     MOCLDY    55  47  74 W8        29.93F                  
O'NEILL        CLOUDY    52  49  89 CALM      29.90R                  
ORD            FOG       46  46 100 CALM      29.91F VSB 1/4          
THEDFORD       MOCLDY    48  38  67 W3        29.95S                  
$$
 
NEZ041-046>049-061>064-073>077-083>087-241200-
SOUTH CENTRAL NEBRASKA
  
CITY           SKY/WX    TMP DP  RH WIND       PRES   REMARKS
GRAND ISLAND   MOCLDY    58  54  86 SW14      29.94F                  
AURORA         MOCLDY    56  56 100 SW9       29.95S FOG              
HASTINGS       PTCLDY    55  52  89 SW7       29.96F FOG              
HEBRON         MOCLDY    58  55  91 CALM      29.99S FOG              
HOLDREGE       PTCLDY    57  53  87 SW9       29.97S                  
KEARNEY *      PTCLDY    54  52  94 SW7       29.96F                  
YORK           MOCLDY    57  55  94 SW9       29.95S FOG              
$$
 
NEZ011>018-030>034-042>045-241200-
NORTHEAST NEBRASKA
  
CITY           SKY/WX    TMP DP  RH WIND       PRES   REMARKS
NORFOLK        MOCLDY    55  53  93 S5        29.90S                  
ALBION         CLOUDY    55  51  88 S5        29.91F                  
BLAIR          MOCLDY    58  56  92 S9        29.94S FOG              
COLUMBUS *     MOCLDY    57  52  82 SW5       29.94S                  
FREMONT        MOCLDY    60  57  89 S5        29.93F                  
TEKAMAH        MOCLDY    59  56  89 S13       29.91F                  
WAYNE          MOCLDY    57  55  91 SW8       29.88F                  
$$

NEZ050>053-065>068-078-088>093-241200-
SOUTHEAST NEBRASKA
  
CITY           SKY/WX    TMP DP  RH WIND       PRES   REMARKS
LINCOLN        MOCLDY    60  57  89 S8        29.96F FOG              
OMAHA EPPLEY   MOCLDY    56  54  93 S10       29.95F                  
BEATRICE       CLOUDY    58  57  96 S7        29.98F FOG              
FALLS CITY     PTCLDY    59  57  93 S6        30.01S FOG              
NEBRASKA CITY  FOG       58  58 100 S14       29.98F VSB 3/4          
PLATTSMOUTH    MOCLDY    56  55  95 S8        29.96F FOG              
$$

NEZ044-045-051>053-067-241200-
OMAHA AREA
  
CITY           SKY/WX    TMP DP  RH WIND       PRES   REMARKS
OMAHA EPPLEY   MOCLDY    56  54  93 S10       29.95F                  
BLAIR          MOCLDY    58  56  92 S9        29.94S FOG              
FREMONT        MOCLDY    60  57  89 S5        29.93F                  
MILLARD        MOCLDY    55  54  95 SE3       29.95F FOG              
OFFUTT AFB     FOG       55  55 100 E5        29.96F VSB 1            
PLATTSMOUTH    MOCLDY    56  55  95 S8        29.96F FOG              
WAHOO          FAIR      58  55  91 S8        29.94S                  
$$

Return to Home page


Western Regional Climate Center, wrcc@dri.edu